Home   Weather   Waldkraiburg   Past weeks

Flag for Germany Past Weather in Waldkraiburg, Bavaria, Germany — Yesterday and Last 2 Weeks

Now
9 °F

Ice fog.


Feels Like: 9 °F
Forecast: 6 / 19 °F
Wind: 2 mph from South

Location: Munich / Franz Josef Strauss Airport

Current Time: Jan 22, 2017 at 9:14:40 am

Latest Report: Jan 22, 2017 at 8:50 am


Visibility: 0 mi

Pressure: 30.30 "Hg

Humidity: 92%

Dew Point: 7 °F

Location of WaldkraiburgLocation

Past Weather in Waldkraiburg — Graph

°F

Waldkraiburg Temperature Yesterday

Maximum temperature yesterday: 19 °F (at 2:50 pm)
Minimum temperature yesterday: 3 °F (at 3:20 am)
Average temperature yesterday: 10 °F

High & Low Weather Summary for the Past Weeks

 TemperatureHumidityPressure
High39 °F (Jan 12, 12:50 pm)100% (Jan 7, 9:50 pm)30.54 "Hg (Jan 7, 9:50 pm)
Low1 °F (Jan 22, 4:50 am)51% (Jan 20, 1:20 pm)29.39 "Hg (Jan 13, 1:50 am)
Average24 °F86%30.16 "Hg
* Reported Jan 7 8:20 am — Jan 22 8:20 am, Waldkraiburg, Weather by CustomWeather, © 2017

Note: Actual official high and low records may vary slightly from our data, if they occured in-between our weather recording intervals... More about our weather records

Advertising

Waldkraiburg Weather History for the Previous 24 Hours

Scroll right to see more
 ConditionsComfort  
Time TempWeatherWind HumidityBarometerVisibility
8:20 am
Sun, Jan 22
9 °FIce fog.3 mph92%30.27 "Hg0 mi
7:50 am9 °FIce fog.3 mph92%30.27 "Hg0 mi
7:20 am9 °FIce fog.1 mph92%30.27 "Hg0 mi
6:50 am9 °FSnow. Overcast.No wind92%30.27 "Hg1 mi
6:20 am9 °FSnow. Overcast.1 mph92%30.27 "Hg1 mi
5:50 am5 °FSnow. Overcast.1 mph92%30.27 "Hg1 mi
5:20 am3 °FSnow. Overcast.3 mph92%30.30 "Hg1 mi
4:50 am1 °FSnow. Overcast.2 mph92%30.30 "Hg1 mi
4:20 am3 °FFrigid.1 mph85%30.30 "Hg1 mi
3:50 am3 °FFrigid.1 mph85%30.30 "Hg1 mi
3:20 am5 °FFrigid.No wind85%30.30 "Hg1 mi
2:50 am5 °FFrigid.1 mph92%30.30 "Hg1 mi
2:20 am5 °FFrigid.1 mph85%30.30 "Hg1 mi
1:50 am7 °FFrigid.1 mph85%30.30 "Hg1 mi
1:20 am7 °FFrigid.No wind92%30.30 "Hg1 mi
12:50 am9 °FFrigid.No wind92%30.33 "Hg1 mi
12:20 am9 °FFrigid.1 mph85%30.33 "Hg1 mi
11:50 pm
Sat, Jan 21
7 °FFrigid.2 mph85%30.33 "Hg1 mi
11:20 pm5 °FFrigid.1 mph92%30.33 "Hg1 mi
10:50 pm7 °FIce fog.1 mph85%30.33 "Hg1 mi
10:20 pm9 °FIce fog.1 mph85%30.33 "Hg1 mi
9:50 pm7 °FIce fog.No wind85%30.33 "Hg1 mi
9:20 pm7 °FIce fog.1 mph92%30.36 "Hg1 mi
8:50 pm9 °FIce fog.3 mph85%30.36 "Hg1 mi
8:20 pm9 °FIce fog.1 mph92%30.36 "Hg2 mi
7:50 pm9 °FIce fog.1 mph92%30.33 "Hg2 mi
7:20 pm12 °FIce fog.No wind92%30.36 "Hg2 mi
6:50 pm12 °FIce fog.1 mph85%30.36 "Hg2 mi
6:20 pm16 °FIce fog.2 mph86%30.36 "Hg2 mi
5:50 pm18 °FIce fog.3 mph86%30.33 "Hg2 mi
5:20 pm18 °FIce fog.3 mph86%30.33 "Hg2 mi
4:50 pm19 °FIce fog.2 mph79%30.36 "Hg2 mi
4:20 pm19 °FIce fog.5 mph79%30.33 "Hg2 mi
3:50 pm19 °FIce fog.5 mph79%30.33 "Hg2 mi
3:20 pm19 °FIce fog.3 mph79%30.36 "Hg2 mi
2:50 pm19 °FIce fog.2 mph79%30.36 "Hg2 mi
2:20 pm18 °FIce fog.3 mph86%30.36 "Hg2 mi
1:50 pm18 °FIce fog.2 mph86%30.36 "Hg2 mi
1:20 pm18 °FIce fog.1 mph86%30.39 "Hg1 mi
12:50 pm16 °FIce fog.3 mph93%30.39 "Hg1 mi
12:20 pm16 °FIce fog.2 mph86%30.39 "Hg1 mi
11:50 am14 °FIce fog.2 mph92%30.42 "Hg1 mi
11:20 am14 °FIce fog.2 mph92%30.42 "Hg1 mi
10:50 am12 °FIce fog.2 mph92%30.42 "Hg1 mi
10:20 am12 °FIce fog.1 mph92%30.42 "Hg1 mi
9:50 am12 °FSleet. Cloudy.No wind92%30.42 "Hg1 mi
9:20 am9 °FSleet. Cloudy.1 mph92%30.42 "Hg1 mi
Weather by CustomWeather, © 2017

See weather overviewHow to use our weather pages